Wautoma, WI

11:12 AM CDT on September 29, 2016 (GMT -0500)
Wautoma

Weather History for KY50 - January, 2012

Change the Weather History Date:

Tuesday, January 3, 2012

  Actual Average (KPCZ) Record (KPCZ)
Temperature  
Mean Temperature 10 °F -  
Max Temperature 21 °F 24 °F 50 °F (2007)
Min Temperature -1 °F 8 °F -16 °F (1979)
Degree Days  
Heating Degree Days 55    
Moisture  
Dew Point 3 °F    
Average Humidity 71    
Maximum Humidity 87    
Minimum Humidity 54    
Precipitation  
Precipitation 0.00 in - - ()
Sea Level Pressure  
Sea Level Pressure 30.25 in    
Wind  
Wind Speed 2 mph (South)    
Max Wind Speed 13 mph    
Max Gust Speed -    
Visibility 10 miles    
Events      
Averages and records for this station are not official NWS values.
T = Trace of Precipitation, MM = Missing Value Source: NWS Daily Summary

Daily Weather History Graph

Daily Weather History Graph

Search for Another Location

Airport or City:

Trip Planner

Search our weather history database for the weather conditions in past years. The results will help you decide how hot, cold, wet, or windy it might be!

Date:

Astronomy

Jan. 03, 2012 Rise Set
Actual Time 7:32 AM CST 4:31 PM CST
Civil Twilight 6:59 AM CST 5:04 PM CST
Nautical Twilight 6:22 AM CST 5:40 PM CST
Astronomical Twilight 5:47 AM CST 6:15 PM CST
Moon 12:21 PM CST (1/3) 2:19 AM CST (1/3)
Length of Visible Light 10h 04m
Length of Day
8h 58m
Waxing Gibbous, 73% of the Moon is Illuminated
Jan 3
Waxing Gibbous
Jan 9
Full
Jan 16
Last Quarter
Jan 23
New
Jan 30
First Quarter

Hourly Weather History & Observations

Time (CST) Temp. Windchill Dew Point Humidity Pressure Visibility Wind Dir Wind Speed Gust Speed Precip Events Conditions
12:56 AM 5.0 °F - -0.9 °F 76% 30.46 in 10.0 mi Calm Calm - N/A   Clear
1:56 AM 2.1 °F - -2.9 °F 79% 30.44 in 10.0 mi Calm Calm - N/A   Clear
2:56 AM 2.1 °F - -2.9 °F 79% 30.42 in 10.0 mi Calm Calm - N/A   Clear
3:56 AM 2.1 °F -11.6 °F -2.9 °F 79% 30.43 in 10.0 mi WNW 8.1 mph - N/A   Clear
4:56 AM 2.1 °F - -2.9 °F 79% 30.43 in 10.0 mi Calm Calm - N/A   Clear
5:56 AM 0.1 °F - -4.9 °F 79% 30.43 in 10.0 mi Calm Calm - N/A   Clear
6:56 AM -0.9 °F - -4.0 °F 87% 30.43 in 10.0 mi Calm Calm - N/A   Clear
7:56 AM -1.8 °F - -4.9 °F 87% 30.41 in 10.0 mi Calm Calm - N/A   Clear
8:56 AM 3.0 °F - -1.8 °F 80% 30.42 in 10.0 mi Calm Calm - N/A   Clear
9:56 AM 10.0 °F - 2.1 °F 70% 30.38 in 10.0 mi Calm Calm - N/A   Clear
10:56 AM 13.1 °F 2.8 °F 3.0 °F 64% 30.35 in 10.0 mi South 6.9 mph - N/A   Clear
11:56 AM 16.2 °F 4.7 °F 3.0 °F 56% 30.30 in 10.0 mi SSE 9.2 mph - N/A   Clear
12:56 PM 18.1 °F 8.9 °F 4.1 °F 54% 30.25 in 10.0 mi South 6.9 mph - N/A   Clear
1:56 PM 19.0 °F 7.5 °F 7.2 °F 60% 30.20 in 10.0 mi SSE 10.4 mph - N/A   Clear
3:56 PM 20.1 °F 7.5 °F 7.2 °F 57% 30.11 in 10.0 mi South 12.7 mph - N/A   Clear
5:56 PM 20.1 °F 10.3 °F 9.1 °F 62% 30.04 in 10.0 mi South 8.1 mph - N/A   Clear
6:56 PM 21.0 °F 13.4 °F 10.0 °F 63% 30.06 in 10.0 mi SSW 5.8 mph - N/A   Clear
7:56 PM 21.0 °F 13.4 °F 10.0 °F 63% 30.03 in 10.0 mi South 5.8 mph - N/A   Clear
8:56 PM 21.0 °F - 11.1 °F 66% 30.01 in 10.0 mi Calm Calm - N/A   Clear
9:56 PM 21.0 °F - 11.1 °F 66% 29.98 in 10.0 mi Calm Calm - N/A   Clear
10:56 PM 17.1 °F - 11.1 °F 77% 29.98 in 10.0 mi Calm Calm - N/A   Clear
11:56 PM 19.0 °F - 11.1 °F 71% 29.95 in 10.0 mi Calm Calm - N/A   Clear